This demonstration page uses our WeatherBlox Daily Observations layout. Learn more.

Left ArrowRight Arrow

Hourly Observations for January 29, 2016

Temp ( °F °C ) Dew Point ( °F °C ) Humidity (%) Winds ( mph kmh ) Pressure ( in mb ) Visibility ( mi km ) Precip ( " mm )
12:59 am 00:59 Mostly Cloudy 41 5 33 0.6 73 73 W 3 6 29.65 1004 9 14 0.00 0.00
1:59 am 01:59 Mostly Cloudy 41 5 31 -0.6 67 67 W 6 9 29.65 1004 10 16 0.00 0.00
2:59 am 02:59 Mostly Cloudy 41 5 31 -0.6 67 67 W 6 9 29.60 1002 10 16 0.00 0.00
3:59 am 03:59 Partly Cloudy 41 5 31 -0.6 67 67 W 6 9 29.60 1002 10 16 0.00 0.00
4:59 am 04:59 Partly Cloudy 40 4.4 30 -1.1 68 68 W 8 13 29.60 1002 10 16 0.00 0.00
5:59 am 05:59 Partly Cloudy 39 3.9 29 -1.7 67 67 W 9 15 29.61 1003 10 16 0.00 0.00
6:59 am 06:59 Mostly Clear 38 3.3 29 -1.7 70 70 W 8 13 29.63 1003 10 16 0.00 0.00
7:59 am 07:59 Mostly Sunny 39 3.9 29 -1.7 67 67 W 10 17 29.65 1004 10 16 0.00 0.00
8:59 am 08:59 Mostly Sunny 42 5.6 29 -1.7 60 60 W 9 15 29.65 1004 10 16 0.00 0.00
9:59 am 09:59 Mostly Sunny 46 7.8 30 -1.1 54 54 W 13 20 29.66 1005 10 16 0.00 0.00
10:59 am 10:59 Mostly Cloudy 48 8.9 30 -1.1 50 50 WNW 18 30 29.67 1005 10 16 0.00 0.00
11:59 am 11:59 Partly Cloudy 50 10 28 -2.2 43 43 WNW 17 28 29.66 1004 10 16 0.00 0.00
12:59 pm 12:59 Mostly Cloudy 50 10 26 -3.3 39 39 NW 21 33 29.65 1004 10 16 0.00 0.00
1:08 pm 13:08 Mostly Cloudy 53 11.7 27 -2.8 37 37 WNW 15 24 29.65 1004 10 16 0.00 0.00
1:59 pm 13:59 Mostly Cloudy 50 10 24 -4.4 36 36 WNW 15 24 29.67 1005 10 16 0.00 0.00
2:59 pm 14:59 Mostly Cloudy 46 7.8 26 -3.3 46 46 NW 26 43 29.72 1006 10 16 0.00 0.00
3:59 pm 15:59 Partly Cloudy 47 8.3 22 -5.6 37 37 WNW 24 39 29.76 1008 10 16 0.00 0.00
4:59 pm 16:59 Mostly Sunny 45 7.2 18 -7.8 34 34 NW 18 30 29.80 1009 10 16 0.00 0.00
5:59 pm 17:59 Clear 43 6.1 17 -8.3 35 35 WNW 16 26 29.85 1011 10 16 0.00 0.00
6:59 pm 18:59 Mostly Clear 42 5.6 19 -7.2 40 40 NW 14 22 29.89 1012 10 16 0.00 0.00
7:59 pm 19:59 Clear 41 5 17 -8.3 38 38 NW 16 26 29.93 1013 10 16 0.00 0.00
8:59 pm 20:59 Clear 38 3.3 20 -6.7 48 48 NNW 12 19 29.96 1015 10 16 0.00 0.00
9:59 pm 21:59 Clear 37 2.8 19 -7.2 48 48 N 6 9 30.00 1016 10 16 0.00 0.00
10:59 pm 22:59 Clear 36 2.2 19 -7.2 50 50 NNW 15 24 30.03 1017 10 16 0.00 0.00
11:59 pm 23:59 Clear 35 1.7 18 -7.8 50 50 NNW 15 24 30.03 1017 10 16 0.00 0.00

Powered by AerisWeather